Location: Valencia
(39.4696°N, 0.3770°W)
Time: 15:09:56
(UTC+01:00)

ISS - Visible Passes

Search period start: 23 March 2017 00:00
Search period end: 02 April 2017 01:00
Orbit: 399 x 409 km, 51.6° (Epoch: 23 March)

Date Brightness Start Highest point End Pass type
(mag) Time Alt. Az. Time Alt. Az. Time Alt. Az.
23 Mar -0.8 04:30:04 16° E 04:30:04 16° E 04:31:03 10° E visible
23 Mar -3.0 06:02:46 19° W 06:04:36 33° SW 06:07:36 10° SSE visible
24 Mar -2.8 05:13:27 38° SSE 05:13:27 38° SSE 05:15:39 10° SE visible
25 Mar -1.6 05:57:08 12° SSW 05:57:08 12° SSW 05:57:53 10° SSW visible
25 Mar -1.2 20:56:06 10° SSW 20:56:15 11° SSW 20:56:15 11° SSW visible
26 Mar -2.0 21:04:51 10° SSE 21:06:48 15° SE 21:07:28 14° ESE visible
26 Mar -0.9 22:39:46 10° WSW 22:40:13 13° WSW 22:40:13 13° WSW visible
27 Mar -4.0 21:47:20 10° SW 21:50:35 78° SE 21:51:11 55° ENE visible
28 Mar -3.2 20:55:15 10° SSW 20:58:17 37° SE 21:01:20 10° ENE visible
28 Mar -1.7 22:31:59 10° W 22:34:36 26° NW 22:34:36 26° NW visible
29 Mar -2.7 21:39:10 10° WSW 21:42:17 43° NNW 21:45:02 13° NE visible
30 Mar -3.8 20:46:36 10° SW 20:49:50 83° NW 20:53:07 10° NE visible
30 Mar -1.2 22:24:34 10° WNW 22:26:43 16° NNW 22:27:55 14° N visible
31 Mar -1.5 21:31:26 10° W 21:34:05 23° NNW 21:36:47 10° NNE visible
01 Apr -0.9 22:17:24 10° NW 22:18:43 12° NNW 22:20:04 10° NNE visible
